QPF
0.00 0.00 0.00 0.00 0.00 0.01 0.01 0.01 0.00 0.00 0.00 0.00 0.00 0.00 0.00 0.00 0.00 0.01 0.02 0.02 0.02 0.02 0.02 0.02 0.03 0.04 0.05 0.06 0.06 0.07 0.08 0.10 0.11 0.12 0.11 0.11 0.11 0.10 0.09 0.08 0.07 0.06 0.05
0.00 0.00 0.00 0.00 0.00 0.00 0.01 0.01 0.01 0.00 0.00 0.00 0.00 0.01 0.01 0.01 0.01 0.01 0.01 0.03 0.06 0.05 0.04 0.03 0.04 0.04 0.04 0.04 0.05 0.06 0.07 0.09 0.09 0.11 0.11 0.10 0.09 0.07 0.07 0.06 0.05 0.04 0.04
0.01 0.01 0.01 0.01 0.00 0.00 0.00 0.00 0.01 0.01 0.01 0.01 0.00 0.02 0.02 0.01 0.01 0.01 0.01 0.02 0.07 0.09 0.06 0.05 0.04 0.04 0.04 0.04 0.04 0.05 0.07 0.10 0.10 0.09 0.09 0.09 0.08 0.07 0.06 0.05 0.04 0.04 0.04
0.00 0.01 0.01 0.00 0.00 0.00 0.00 0.00 0.01 0.01 0.01 0.01 0.01 0.01 0.01 0.01 0.01 0.01 0.01 0.03 0.07 0.09 0.07 0.07 0.06 0.05 0.04 0.04 0.04 0.05 0.06 0.10 0.10 0.08 0.06 0.06 0.05 0.05 0.04 0.04 0.04 0.03 0.03
0.00 0.00 0.00 0.00 0.00 0.01 0.00 0.00 0.01 0.01 0.01 0.01 0.01 0.01 0.01 0.01 0.01 0.01 0.01 0.03 0.06 0.08 0.08 0.08 0.07 0.06 0.06 0.05 0.05 0.04 0.05 0.08 0.08 0.06 0.05 0.05 0.04 0.03 0.03 0.03 0.03 0.02 0.02
0.00 0.00 0.00 0.01 0.01 0.01 0.00 0.00 0.01 0.01 0.01 0.01 0.01 0.01 0.01 0.00 0.00 0.00 0.01 0.02 0.03 0.06 0.07 0.07 0.05 0.05 0.04 0.05 0.05 0.05 0.04 0.04 0.04 0.04 0.03 0.03 0.02 0.02 0.01 0.01 0.01 0.01 0.01
0.00 0.00 0.00 0.01 0.01 0.01 0.01 0.00 0.00 0.00 0.01 0.01 0.01 0.01 0.01 0.01 0.01 0.01 0.01 0.02 0.02 0.03 0.04 0.03 0.03 0.03 0.03 0.02 0.03 0.03 0.03 0.03 0.02 0.02 0.01 0.01 0.01 0.01 0.01 0.00 0.00 0.00 0.00
0.00 0.00 0.00 0.01 0.01 0.01 0.01 0.00 0.00 0.00 0.01 0.01 0.01 0.02 0.02 0.02 0.01 0.01 0.01 0.01 0.01 0.01 0.01 0.01 0.01 0.02 0.02 0.02 0.02 0.01 0.01 0.01 0.01 0.01 0.01 0.00 0.00 0.01 0.01 0.00 0.00 0.00 0.00
0.01 0.01 0.01 0.01 0.01 0.01 0.01 0.00 0.00 0.00 0.01 0.01 0.01 0.02 0.02 0.01 0.01 0.01 0.00 0.01 0.00 0.00 0.00 0.01 0.00 0.00 0.01 0.01 0.01 0.01 0.01 0.01 0.01 0.00 0.00 0.00 0.00 0.00 0.00 0.00 0.00 0.00 0.00
0.01 0.02 0.01 0.01 0.01 0.01 0.01 0.00 0.00 0.01 0.01 0.01 0.01 0.02 0.02 0.01 0.01 0.01 0.00 0.00 0.00 0.00 0.00 0.00 0.00 0.00 0.00 0.00 0.01 0.01 0.01 0.00 0.00 0.00 0.00 0.00 0.00 0.00 0.00 0.00 0.00 0.00 0.00
0.01 0.02 0.02 0.01 0.01 0.01 0.00 0.00 0.00 0.01 0.01 0.01 0.01 0.01 0.01 0.01 0.01 0.00 0.00 0.00 0.00 0.00 0.00 0.00 0.00 0.00 0.00 0.00 0.01 0.01 0.01 0.01 0.00 0.00 0.00 0.00 0.00 0.00 0.00 0.00 0.00 0.00 0.00
0.01 0.02 0.02 0.02 0.01 0.00 0.00 0.00 0.01 0.01 0.01 0.01 0.01 0.01 0.01 0.01 0.00 0.00 0.00 0.00 0.00 0.00 0.00 0.00 0.00 0.00 0.00 0.00 0.00 0.00 0.00 0.00 0.00 0.00 0.00 0.00 0.00 0.00 0.00 0.00 0.00 0.00 0.00
0.02 0.02 0.02 0.01 0.01 0.01 0.01 0.01 0.01 0.01 0.01 0.01 0.01 0.01 0.01 0.00 0.00 0.00 0.00 0.00 0.00 0.00 0.00 0.00 0.00 0.00 0.00 0.00 0.00 0.00 0.00 0.00 0.00 0.00 0.00 0.00 0.00 0.00 0.00 0.00 0.00 0.00 0.00
0.02 0.02 0.02 0.01 0.01 0.00 0.01 0.01 0.01 0.01 0.01 0.01 0.01 0.00 0.00 0.00 0.00 0.00 0.00 0.00 0.00 0.00 0.00 0.00 0.00 0.00 0.00 0.00 0.00 0.00 0.00 0.00 0.00 0.00 0.00 0.00 0.00 0.00 0.00 0.00 0.00 0.00 0.00
0.02 0.01 0.01 0.01 0.01 0.01 0.01 0.01 0.00 0.01 0.01 0.01 0.01 0.00 0.00 0.00 0.00 0.00 0.00 0.00 0.00 0.00 0.00 0.00 0.00 0.00 0.00 0.00 0.00 0.00 0.00 0.00 0.00 0.00 0.00 0.00 0.00 0.00 0.00 0.00 0.00 0.00 0.00
0.01 0.01 0.01 0.01 0.01 0.01 0.01 0.00 0.00 0.01 0.01 0.01 0.01 0.00 0.00 0.00 0.00 0.00 0.00 0.00 0.00 0.00 0.00 0.00 0.00 0.00 0.00 0.00 0.00 0.00 0.00 0.00 0.00 0.00 0.00 0.00 0.00 0.00 0.00 0.00 0.00 0.00 0.00
0.01 0.01 0.01 0.01 0.01 0.00 0.01 0.00 0.00 0.00 0.00 0.00 0.00 0.00 0.00 0.00 0.00 0.00 0.00 0.00 0.00 0.00 0.00 0.00 0.00 0.00 0.00 0.00 0.00 0.00 0.00 0.00 0.00 0.00 0.00 0.00 0.00 0.00 0.00 0.00 0.00 0.00 0.00
0.00 0.00 0.00 0.00 0.00 0.00 0.00 0.00 0.00 0.00 0.00 0.00 0.00 0.00 0.00 0.00 0.00 0.00 0.00 0.00 0.00 0.00 0.00 0.00 0.00 0.00 0.00 0.00 0.00 0.00 0.00 0.00 0.00 0.00 0.00 0.00 0.00 0.00 0.00 0.00 0.00 0.00 0.00
0.00 0.00 0.00 0.00 0.00 0.00 0.00 0.00 0.00 0.00 0.00 0.00 0.00 0.00 0.00 0.00 0.00 0.00 0.00 0.00 0.00 0.00 0.00 0.00 0.00 0.00 0.00 0.00 0.00 0.00 0.00 0.00 0.00 0.00 0.00 0.00 0.00 0.00 0.00 0.00 0.00 0.00 0.00
0.00 0.00 0.00 0.00 0.00 0.00 0.00 0.00 0.00 0.00 0.00 0.00 0.00 0.00 0.00 0.00 0.00 0.00 0.00 0.00 0.00 0.00 0.00 0.00 0.00 0.00 0.00 0.00 0.00 0.00 0.00 0.00 0.00 0.00 0.00 0.00 0.00 0.00 0.00 0.00 0.00 0.00 0.00
0.00 0.00 0.00 0.00 0.00 0.00 0.00 0.00 0.00 0.00 0.00 0.00 0.00 0.00 0.00 0.00 0.00 0.00 0.00 0.00 0.00 0.00 0.00 0.00 0.00 0.00 0.00 0.00 0.00 0.00 0.00 0.00 0.00 0.00 0.00 0.00 0.00 0.00 0.00 0.00 0.00 0.00 0.00
0.00 0.00 0.00 0.00 0.00 0.00 0.00 0.00 0.00 0.00 0.00 0.00 0.00 0.00 0.00 0.00 0.00 0.00 0.00 0.00 0.00 0.00 0.00 0.00 0.00 0.00 0.00 0.00 0.00 0.00 0.00 0.00 0.00 0.00 0.00 0.00 0.00 0.00 0.00 0.00 0.00 0.00 0.00
0.00 0.00 0.00 0.00 0.00 0.00 0.00 0.00 0.00 0.00 0.00 0.00 0.00 0.00 0.00 0.00 0.00 0.00 0.00 0.00 0.00 0.00 0.00 0.00 0.00 0.00 0.00 0.00 0.00 0.00 0.00 0.00 0.00 0.00 0.00 0.00 0.00 0.00 0.00 0.00 0.00 0.00 0.00
0.00 0.00 0.00 0.00 0.00 0.00 0.00 0.00 0.00 0.00 0.00 0.00 0.00 0.00 0.00 0.00 0.00 0.00 0.00 0.00 0.00 0.00 0.00 0.00 0.00 0.00 0.00 0.00 0.00 0.00 0.00 0.00 0.00 0.00 0.00 0.00 0.00 0.00 0.00 0.00 0.00 0.00 0.00
0.00 0.00 0.00 0.00 0.00 0.00 0.00 0.00 0.00 0.00 0.00 0.00 0.00 0.00 0.00 0.00 0.00 0.00 0.00 0.00 0.00 0.00 0.00 0.00 0.00 0.00 0.00 0.00 0.00 0.00 0.00 0.00 0.00 0.00 0.00 0.00 0.00 0.00 0.00 0.00 0.00 0.00 0.00
0.00 0.00 0.00 0.00 0.00 0.00 0.00 0.00 0.00 0.00 0.00 0.00 0.00 0.00 0.00 0.00 0.00 0.00 0.00 0.00 0.00 0.00 0.00 0.00 0.00 0.00 0.00 0.00 0.00 0.00 0.00 0.00 0.00 0.00 0.00 0.00 0.00 0.00 0.00 0.00 0.00 0.00 0.00
MSLP
1021.46 1021.42 1021.43 1021.44 1021.43 1021.38 1021.27 1021.11 1020.88 1020.61 1020.30 1019.98 1019.65 1019.32 1018.97 1018.61 1018.22 1017.79 1017.33 1016.83 1016.31 1015.79 1015.30 1014.87 1014.52 1014.30 1014.24 1014.36 1014.68 1015.20 1015.91 1016.77 1017.75 1018.80 1019.87 1020.90 1021.85 1022.68 1023.39 1023.98 1024.46 1024.86 1025.19
1021.55 1021.54 1021.54 1021.54 1021.50 1021.42 1021.28 1021.09 1020.84 1020.55 1020.23 1019.89 1019.53 1019.16 1018.77 1018.34 1017.87 1017.35 1016.78 1016.16 1015.51 1014.87 1014.25 1013.70 1013.27 1012.99 1012.91 1013.07 1013.46 1014.10 1014.95 1015.99 1017.17 1018.41 1019.66 1020.85 1021.93 1022.86 1023.63 1024.25 1024.72 1025.08 1025.37
1021.57 1021.60 1021.62 1021.62 1021.57 1021.47 1021.31 1021.10 1020.83 1020.52 1020.18 1019.82 1019.44 1019.04 1018.61 1018.13 1017.60 1017.00 1016.35 1015.64 1014.90 1014.15 1013.44 1012.82 1012.33 1012.02 1011.94 1012.13 1012.59 1013.32 1014.29 1015.47 1016.79 1018.17 1019.55 1020.86 1022.02 1023.02 1023.83 1024.45 1024.91 1025.23 1025.47
1021.61 1021.69 1021.74 1021.75 1021.70 1021.59 1021.41 1021.17 1020.89 1020.57 1020.22 1019.84 1019.45 1019.02 1018.56 1018.05 1017.48 1016.85 1016.15 1015.39 1014.60 1013.81 1013.06 1012.41 1011.89 1011.58 1011.51 1011.72 1012.22 1013.00 1014.04 1015.29 1016.68 1018.13 1019.57 1020.92 1022.12 1023.14 1023.95 1024.56 1024.99 1025.29 1025.49
1021.71 1021.83 1021.91 1021.93 1021.88 1021.76 1021.58 1021.34 1021.04 1020.71 1020.36 1019.98 1019.58 1019.15 1018.68 1018.16 1017.59 1016.95 1016.26 1015.50 1014.72 1013.94 1013.20 1012.56 1012.06 1011.76 1011.70 1011.92 1012.43 1013.21 1014.25 1015.50 1016.87 1018.31 1019.73 1021.05 1022.23 1023.21 1023.99 1024.57 1024.98 1025.25 1025.41
1021.86 1022.01 1022.11 1022.14 1022.10 1021.99 1021.80 1021.56 1021.27 1020.95 1020.60 1020.23 1019.84 1019.43 1018.98 1018.48 1017.94 1017.34 1016.69 1015.99 1015.26 1014.54 1013.86 1013.27 1012.82 1012.55 1012.50 1012.71 1013.19 1013.93 1014.91 1016.07 1017.35 1018.69 1020.01 1021.24 1022.33 1023.25 1023.97 1024.51 1024.88 1025.13 1025.27
1022.06 1022.22 1022.32 1022.36 1022.32 1022.21 1022.04 1021.82 1021.55 1021.25 1020.93 1020.59 1020.23 1019.84 1019.43 1018.99 1018.50 1017.97 1017.39 1016.79 1016.16 1015.54 1014.95 1014.45 1014.06 1013.83 1013.79 1013.98 1014.41 1015.06 1015.92 1016.94 1018.07 1019.25 1020.41 1021.50 1022.46 1023.27 1023.91 1024.40 1024.74 1024.97 1025.11
1022.24 1022.39 1022.49 1022.53 1022.50 1022.41 1022.27 1022.08 1021.85 1021.59 1021.32 1021.02 1020.70 1020.37 1020.01 1019.62 1019.21 1018.76 1018.29 1017.79 1017.28 1016.78 1016.31 1015.91 1015.60 1015.42 1015.40 1015.56 1015.91 1016.45 1017.17 1018.01 1018.95 1019.94 1020.91 1021.82 1022.63 1023.31 1023.87 1024.29 1024.60 1024.82 1024.97
1022.40 1022.53 1022.61 1022.65 1022.64 1022.58 1022.48 1022.34 1022.17 1021.98 1021.75 1021.51 1021.25 1020.96 1020.66 1020.33 1019.99 1019.62 1019.24 1018.86 1018.47 1018.09 1017.74 1017.44 1017.22 1017.10 1017.09 1017.23 1017.51 1017.94 1018.50 1019.17 1019.92 1020.70 1021.47 1022.20 1022.86 1023.42 1023.88 1024.25 1024.52 1024.73 1024.88
1022.53 1022.63 1022.70 1022.74 1022.76 1022.74 1022.70 1022.63 1022.53 1022.40 1022.24 1022.06 1021.84 1021.60 1021.34 1021.06 1020.77 1020.47 1020.17 1019.87 1019.58 1019.32 1019.08 1018.88 1018.74 1018.67 1018.69 1018.82 1019.04 1019.38 1019.81 1020.32 1020.89 1021.49 1022.08 1022.65 1023.16 1023.60 1023.98 1024.28 1024.53 1024.72 1024.86
1022.66 1022.73 1022.80 1022.86 1022.91 1022.95 1022.97 1022.97 1022.95 1022.89 1022.79 1022.66 1022.48 1022.27 1022.03 1021.77 1021.50 1021.24 1020.99 1020.75 1020.54 1020.36 1020.22 1020.11 1020.04 1020.03 1020.09 1020.21 1020.40 1020.67 1021.01 1021.39 1021.82 1022.27 1022.71 1023.14 1023.53 1023.87 1024.16 1024.41 1024.61 1024.78 1024.91
1022.83 1022.89 1022.97 1023.05 1023.15 1023.25 1023.34 1023.41 1023.46 1023.46 1023.41 1023.31 1023.15 1022.94 1022.70 1022.44 1022.17 1021.91 1021.68 1021.48 1021.32 1021.20 1021.12 1021.08 1021.08 1021.13 1021.22 1021.36 1021.54 1021.77 1022.04 1022.35 1022.67 1023.01 1023.34 1023.65 1023.94 1024.19 1024.41 1024.59 1024.75 1024.88 1024.99
1023.08 1023.15 1023.25 1023.37 1023.51 1023.66 1023.82 1023.95 1024.05 1024.09 1024.07 1023.98 1023.82 1023.60 1023.34 1023.05 1022.76 1022.49 1022.25 1022.06 1021.92 1021.83 1021.80 1021.82 1021.88 1021.97 1022.10 1022.27 1022.46 1022.67 1022.91 1023.16 1023.42 1023.68 1023.92 1024.15 1024.35 1024.53 1024.68 1024.81 1024.91 1025.00 1025.08
1023.43 1023.52 1023.64 1023.80 1023.99 1024.19 1024.39 1024.56 1024.69 1024.75 1024.74 1024.64 1024.46 1024.21 1023.92 1023.59 1023.27 1022.97 1022.72 1022.52 1022.39 1022.33 1022.33 1022.39 1022.49 1022.62 1022.79 1022.98 1023.18 1023.39 1023.61 1023.83 1024.05 1024.25 1024.44 1024.60 1024.74 1024.85 1024.93 1025.00 1025.06 1025.10 1025.13
1023.84 1023.96 1024.11 1024.31 1024.53 1024.76 1024.98 1025.17 1025.31 1025.37 1025.34 1025.22 1025.02 1024.73 1024.40 1024.05 1023.70 1023.38 1023.12 1022.92 1022.80 1022.75 1022.78 1022.86 1022.99 1023.15 1023.34 1023.54 1023.76 1023.97 1024.18 1024.38 1024.56 1024.72 1024.86 1024.97 1025.05 1025.11 1025.14 1025.16 1025.16 1025.15 1025.14
1024.25 1024.40 1024.59 1024.81 1025.05 1025.29 1025.51 1025.70 1025.82 1025.86 1025.80 1025.66 1025.42 1025.11 1024.76 1024.39 1024.04 1023.72 1023.46 1023.27 1023.17 1023.14 1023.18 1023.28 1023.43 1023.61 1023.81 1024.02 1024.23 1024.43 1024.62 1024.79 1024.94 1025.07 1025.17 1025.24 1025.28 1025.29 1025.28 1025.26 1025.22 1025.16 1025.11
1024.59 1024.78 1024.99 1025.22 1025.46 1025.69 1025.90 1026.06 1026.15 1026.15 1026.07 1025.90 1025.64 1025.33 1024.98 1024.62 1024.28 1023.98 1023.75 1023.60 1023.52 1023.52 1023.59 1023.70 1023.86 1024.04 1024.23 1024.43 1024.61 1024.79 1024.95 1025.10 1025.22 1025.31 1025.38 1025.42 1025.43 1025.41 1025.37 1025.31 1025.24 1025.15 1025.05
1024.80 1025.01 1025.23 1025.46 1025.69 1025.90 1026.08 1026.20 1026.26 1026.23 1026.12 1025.93 1025.68 1025.37 1025.04 1024.72 1024.43 1024.18 1024.00 1023.89 1023.86 1023.89 1023.98 1024.11 1024.27 1024.44 1024.61 1024.78 1024.93 1025.07 1025.20 1025.31 1025.39 1025.46 1025.50 1025.52 1025.52 1025.48 1025.43 1025.35 1025.26 1025.14 1025.01
1024.85 1025.07 1025.30 1025.52 1025.73 1025.91 1026.05 1026.14 1026.16 1026.11 1025.98 1025.79 1025.55 1025.27 1024.99 1024.73 1024.50 1024.32 1024.20 1024.16 1024.17 1024.24 1024.35 1024.48 1024.63 1024.79 1024.93 1025.06 1025.18 1025.28 1025.37 1025.44 1025.50 1025.54 1025.57 1025.58 1025.57 1025.53 1025.47 1025.39 1025.28 1025.15 1024.98
1024.75 1024.97 1025.19 1025.40 1025.59 1025.75 1025.86 1025.91 1025.91 1025.84 1025.71 1025.53 1025.32 1025.09 1024.87 1024.67 1024.51 1024.41 1024.37 1024.38 1024.44 1024.54 1024.66 1024.80 1024.94 1025.07 1025.18 1025.27 1025.35 1025.41 1025.46 1025.51 1025.54 1025.57 1025.59 1025.60 1025.59 1025.57 1025.51 1025.43 1025.31 1025.16 1024.96
1024.54 1024.76 1024.97 1025.17 1025.34 1025.47 1025.56 1025.60 1025.59 1025.51 1025.40 1025.24 1025.07 1024.89 1024.73 1024.60 1024.51 1024.47 1024.49 1024.55 1024.64 1024.77 1024.90 1025.03 1025.15 1025.25 1025.33 1025.39 1025.43 1025.46 1025.49 1025.51 1025.54 1025.56 1025.59 1025.60 1025.60 1025.58 1025.54 1025.45 1025.32 1025.14 1024.91
1024.28 1024.49 1024.69 1024.88 1025.04 1025.17 1025.25 1025.28 1025.27 1025.21 1025.11 1024.99 1024.85 1024.72 1024.61 1024.54 1024.51 1024.52 1024.57 1024.66 1024.78 1024.90 1025.03 1025.15 1025.24 1025.32 1025.37 1025.40 1025.42 1025.43 1025.44 1025.46 1025.48 1025.51 1025.54 1025.57 1025.58 1025.56 1025.51 1025.41 1025.26 1025.05 1024.78
1024.01 1024.22 1024.42 1024.60 1024.76 1024.89 1024.98 1025.01 1025.01 1024.97 1024.89 1024.80 1024.70 1024.61 1024.54 1024.51 1024.51 1024.54 1024.61 1024.71 1024.82 1024.93 1025.04 1025.13 1025.20 1025.25 1025.28 1025.30 1025.31 1025.31 1025.32 1025.34 1025.37 1025.41 1025.44 1025.47 1025.48 1025.46 1025.39 1025.27 1025.09 1024.84 1024.51
1023.75 1023.96 1024.16 1024.35 1024.52 1024.65 1024.75 1024.80 1024.81 1024.79 1024.73 1024.67 1024.59 1024.53 1024.49 1024.47 1024.48 1024.52 1024.58 1024.66 1024.75 1024.84 1024.92 1024.98 1025.03 1025.05 1025.07 1025.08 1025.08 1025.10 1025.11 1025.14 1025.18 1025.22 1025.26 1025.28 1025.28 1025.24 1025.14 1024.99 1024.76 1024.46 1024.08
1023.50 1023.71 1023.91 1024.11 1024.28 1024.43 1024.53 1024.60 1024.63 1024.62 1024.59 1024.54 1024.49 1024.44 1024.41 1024.39 1024.39 1024.42 1024.46 1024.51 1024.56 1024.61 1024.66 1024.69 1024.71 1024.73 1024.73 1024.74 1024.75 1024.78 1024.81 1024.85 1024.89 1024.94 1024.97 1024.98 1024.95 1024.88 1024.75 1024.55 1024.27 1023.92 1023.49
1023.20 1023.41 1023.63 1023.83 1024.01 1024.17 1024.28 1024.36 1024.40 1024.41 1024.39 1024.35 1024.31 1024.27 1024.23 1024.21 1024.20 1024.20 1024.21 1024.23 1024.24 1024.26 1024.27 1024.27 1024.28 1024.28 1024.28 1024.30 1024.32 1024.36 1024.40 1024.46 1024.51 1024.55 1024.57 1024.55 1024.50 1024.38 1024.21 1023.96 1023.64 1023.25 1022.78
Thickness
5598 5598 5597 5595 5595 5594 5593 5592 5592 5592 5593 5593 5594 5595 5596 5597 5598 5600 5601 5601 5603 5604 5605 5606 5607 5608 5609 5609 5609 5609 5608 5606 5600 5591 5588 5587 5587 5586 5585 5585 5584 5584 5583
5590 5589 5587 5586 5585 5584 5583 5582 5582 5582 5582 5583 5584 5585 5587 5587 5588 5589 5590 5591 5593 5594 5595 5597 5597 5599 5600 5600 5600 5600 5598 5597 5594 5587 5580 5578 5577 5576 5576 5575 5574 5574 5573
5581 5579 5577 5576 5574 5573 5572 5572 5572 5572 5572 5573 5574 5575 5576 5576 5577 5578 5580 5581 5582 5584 5585 5587 5588 5589 5590 5590 5591 5590 5589 5587 5585 5581 5574 5571 5569 5568 5567 5566 5565 5565 5565
5572 5570 5567 5565 5564 5563 5562 5562 5562 5562 5563 5563 5564 5565 5566 5566 5568 5569 5570 5571 5572 5574 5575 5577 5578 5579 5580 5581 5581 5581 5580 5578 5575 5572 5568 5564 5561 5559 5559 5558 5557 5556 5555
5563 5560 5557 5555 5555 5554 5553 5552 5552 5553 5553 5553 5554 5555 5557 5558 5558 5560 5561 5561 5562 5564 5565 5566 5568 5570 5571 5572 5573 5571 5571 5569 5566 5563 5560 5557 5554 5553 5552 5550 5550 5548 5547
5554 5551 5549 5547 5546 5545 5544 5543 5543 5543 5543 5544 5544 5546 5547 5548 5549 5550 5551 5552 5553 5554 5555 5556 5558 5559 5561 5561 5561 5561 5562 5561 5558 5556 5553 5551 5548 5547 5545 5545 5544 5544 5542
5546 5543 5541 5539 5537 5536 5535 5535 5534 5534 5535 5535 5536 5537 5538 5539 5541 5542 5543 5544 5544 5544 5545 5546 5548 5549 5551 5552 5551 5551 5551 5550 5550 5549 5547 5545 5543 5542 5541 5540 5538 5538 5536
5538 5536 5534 5532 5530 5529 5528 5527 5526 5526 5526 5526 5527 5529 5530 5531 5533 5535 5536 5537 5536 5536 5536 5538 5539 5540 5541 5543 5543 5542 5542 5541 5541 5541 5540 5539 5538 5537 5536 5535 5533 5531 5529
5533 5530 5528 5526 5524 5522 5521 5520 5519 5519 5519 5519 5520 5521 5523 5524 5526 5528 5530 5530 5529 5529 5530 5531 5532 5533 5534 5535 5536 5535 5534 5533 5534 5534 5534 5533 5533 5532 5531 5530 5529 5529 5527
5527 5525 5522 5520 5518 5517 5515 5514 5514 5514 5513 5514 5514 5514 5516 5517 5520 5522 5523 5524 5524 5524 5525 5526 5527 5528 5529 5530 5530 5530 5529 5527 5528 5528 5528 5528 5527 5527 5527 5526 5525 5524 5523
5523 5520 5517 5516 5514 5513 5511 5510 5509 5509 5509 5508 5508 5509 5510 5512 5514 5516 5518 5519 5519 5520 5521 5522 5523 5524 5525 5526 5526 5526 5525 5524 5524 5525 5524 5524 5524 5524 5523 5523 5522 5521 5521
5519 5516 5514 5512 5511 5510 5508 5507 5506 5505 5505 5504 5504 5504 5505 5507 5509 5512 5514 5515 5517 5518 5518 5519 5520 5522 5523 5523 5523 5523 5523 5523 5523 5523 5522 5521 5521 5522 5521 5521 5521 5520 5519
5516 5513 5511 5509 5507 5506 5505 5504 5503 5502 5502 5501 5501 5501 5502 5504 5506 5509 5511 5513 5514 5516 5516 5518 5519 5520 5521 5521 5521 5522 5522 5522 5521 5521 5520 5519 5519 5519 5520 5521 5521 5520 5520
5514 5511 5509 5507 5505 5503 5502 5502 5501 5500 5500 5500 5500 5500 5501 5502 5505 5507 5509 5511 5513 5515 5516 5517 5519 5520 5520 5520 5520 5521 5521 5520 5520 5519 5519 5518 5519 5520 5520 5519 5519 5519 5520
5513 5510 5507 5505 5503 5501 5500 5499 5499 5498 5498 5499 5499 5500 5501 5503 5504 5507 5508 5511 5513 5514 5516 5518 5519 5520 5520 5520 5520 5520 5520 5520 5520 5519 5519 5520 5520 5520 5520 5519 5518 5519 5518
5512 5509 5507 5505 5503 5501 5500 5499 5499 5500 5501 5501 5501 5502 5503 5505 5507 5509 5511 5513 5514 5516 5517 5518 5518 5519 5520 5520 5521 5521 5521 5521 5521 5521 5521 5521 5521 5521 5521 5520 5519 5519 5519
5514 5511 5509 5506 5505 5503 5502 5502 5502 5502 5503 5504 5505 5506 5507 5509 5510 5512 5513 5515 5517 5518 5519 5519 5520 5520 5521 5522 5522 5523 5523 5523 5522 5523 5523 5523 5523 5523 5522 5522 5522 5521 5521
5516 5513 5511 5509 5508 5507 5506 5505 5505 5506 5507 5507 5509 5510 5512 5513 5515 5516 5517 5518 5520 5520 5521 5522 5523 5524 5525 5525 5526 5526 5526 5526 5526 5526 5526 5525 5525 5525 5525 5525 5524 5523 5522
5519 5517 5515 5514 5512 5511 5510 5510 5510 5510 5510 5511 5513 5515 5517 5518 5520 5521 5521 5522 5524 5525 5526 5527 5527 5528 5529 5530 5530 5530 5530 5530 5530 5530 5530 5529 5529 5528 5528 5527 5527 5525 5523
5523 5522 5520 5518 5517 5517 5516 5516 5516 5516 5517 5517 5519 5521 5522 5523 5525 5526 5527 5527 5529 5530 5531 5532 5533 5534 5534 5535 5535 5535 5535 5535 5534 5534 5534 5533 5532 5531 5531 5530 5530 5529 5527
5528 5526 5525 5524 5523 5523 5523 5523 5523 5523 5524 5525 5527 5528 5528 5529 5531 5532 5534 5534 5535 5537 5538 5539 5539 5540 5541 5541 5541 5541 5540 5540 5540 5539 5539 5538 5537 5535 5534 5533 5532 5531 5530
5532 5531 5530 5530 5529 5529 5529 5529 5530 5530 5531 5533 5535 5536 5536 5536 5538 5539 5541 5542 5543 5544 5545 5545 5546 5547 5547 5547 5547 5546 5546 5545 5545 5544 5543 5542 5541 5539 5538 5537 5535 5534 5533
5538 5537 5536 5535 5536 5536 5536 5537 5537 5538 5539 5541 5542 5543 5544 5545 5546 5547 5549 5550 5551 5552 5552 5552 5552 5553 5554 5553 5553 5552 5551 5551 5551 5549 5547 5546 5545 5543 5541 5540 5539 5537 5536
5543 5543 5542 5542 5542 5542 5543 5544 5545 5545 5547 5548 5549 5551 5552 5553 5554 5555 5556 5557 5558 5559 5559 5559 5559 5560 5560 5560 5559 5558 5558 5557 5556 5554 5552 5550 5548 5547 5545 5543 5542 5541 5539
5550 5549 5548 5548 5548 5549 5550 5551 5552 5552 5553 5555 5557 5558 5560 5561 5561 5563 5564 5564 5565 5565 5566 5567 5567 5567 5567 5566 5565 5565 5564 5563 5560 5558 5556 5553 5551 5550 5548 5547 5545 5543 5541
5556 5556 5555 5554 5555 5555 5556 5557 5558 5559 5560 5562 5564 5565 5566 5567 5569 5570 5570 5571 5571 5572 5573 5573 5574 5573 5573 5572 5572 5571 5569 5568 5566 5563 5560 5557 5555 5553 5552 5550 5548 5545 5543